Time,TemperatureF,DewpointF,PressureIn,WindDirection,WindDirectionDegrees,WindSpeedMPH,WindSpeedGustMPH,Humidity,HourlyPrecipIn,Conditions,Clouds,dailyrainin,SolarRadiationWatts/m^2,SoftwareType,DateUTC
2013-01-09 00:16:00,22.7,21.0,30.36,SW,222,0.0,0.0,91,0.00,,,0.00,0,weatherlink.com 1.10,2013-01-09 05:16:00,
2013-01-09 00:33:00,23.0,21.0,30.36,SW,222,0.0,0.0,91,0.00,,,0.00,0,weatherlink.com 1.10,2013-01-09 05:33:00,
2013-01-09 00:47:00,23.2,21.0,30.36,SW,222,0.0,0.0,91,0.00,,,0.00,0,weatherlink.com 1.10,2013-01-09 05:47:00,
2013-01-09 01:02:00,23.1,21.0,30.36,West,275,0.0,3.0,90,0.00,,,0.00,0,weatherlink.com 1.10,2013-01-09 06:02:00,
2013-01-09 01:17:00,23.0,21.0,30.36,West,275,0.0,0.0,90,0.00,,,0.00,0,weatherlink.com 1.10,2013-01-09 06:17:00,
2013-01-09 01:32:00,22.8,20.0,30.37,West,275,0.0,0.0,90,0.00,,,0.00,0,weatherlink.com 1.10,2013-01-09 06:32:00,
2013-01-09 01:47:00,22.4,20.0,30.37,West,275,0.0,0.0,90,0.00,,,0.00,0,weatherlink.com 1.10,2013-01-09 06:47:00,
2013-01-09 02:02:00,22.1,20.0,30.37,WNW,290,0.0,3.0,90,0.00,,,0.00,0,weatherlink.com 1.10,2013-01-09 07:02:00,
2013-01-09 02:17:00,21.6,19.0,30.37,WNW,290,0.0,0.0,90,0.00,,,0.00,0,weatherlink.com 1.10,2013-01-09 07:17:00,
2013-01-09 02:32:00,21.1,19.0,30.37,NNE,22,4.0,4.0,90,0.00,,,0.00,0,weatherlink.com 1.10,2013-01-09 07:32:00,
2013-01-09 03:02:00,20.3,18.0,30.36,NNE,23,0.0,0.0,90,0.00,,,0.00,0,weatherlink.com 1.10,2013-01-09 08:02:00,
2013-01-09 03:17:00,20.0,18.0,30.36,NNE,23,0.0,0.0,91,0.00,,,0.00,0,weatherlink.com 1.10,2013-01-09 08:17:00,
2013-01-09 03:32:00,20.0,18.0,30.36,NNE,23,0.0,0.0,91,0.00,,,0.00,0,weatherlink.com 1.10,2013-01-09 08:32:00,
2013-01-09 03:47:00,20.0,18.0,30.36,NNE,23,0.0,0.0,92,0.00,,,0.00,0,weatherlink.com 1.10,2013-01-09 08:47:00,
2013-01-09 04:18:00,18.1,16.0,30.36,NNE,22,0.0,2.0,91,0.00,,,0.00,0,weatherlink.com 1.10,2013-01-09 09:18:00,
2013-01-09 04:32:00,17.7,16.0,30.36,NE,34,0.0,2.0,91,0.00,,,0.00,0,weatherlink.com 1.10,2013-01-09 09:32:00,
2013-01-09 04:47:00,17.5,16.0,30.36,NE,34,0.0,0.0,92,0.00,,,0.00,0,weatherlink.com 1.10,2013-01-09 09:47:00,
2013-01-09 05:02:00,17.4,16.0,30.35,NE,34,0.0,0.0,92,0.00,,,0.00,0,weatherlink.com 1.10,2013-01-09 10:02:00,
2013-01-09 05:17:00,17.1,15.0,30.35,NE,34,0.0,0.0,91,0.00,,,0.00,0,weatherlink.com 1.10,2013-01-09 10:17:00,
2013-01-09 05:32:00,16.3,14.0,30.36,NE,34,0.0,0.0,90,0.00,,,0.00,0,weatherlink.com 1.10,2013-01-09 10:32:00,
2013-01-09 05:47:00,15.7,13.0,30.36,NE,34,0.0,0.0,90,0.00,,,0.00,0,weatherlink.com 1.10,2013-01-09 10:47:00,
2013-01-09 06:02:00,15.9,14.0,30.36,NNE,33,0.0,0.0,91,0.00,,,0.00,0,weatherlink.com 1.10,2013-01-09 11:02:00,
2013-01-09 06:17:00,16.3,14.0,30.36,NNE,33,0.0,0.0,91,0.00,,,0.00,0,weatherlink.com 1.10,2013-01-09 11:17:00,
2013-01-09 06:32:00,16.1,14.0,30.37,NNE,33,0.0,0.0,92,0.00,,,0.00,0,weatherlink.com 1.10,2013-01-09 11:32:00,
2013-01-09 06:47:00,15.7,14.0,30.38,NE,34,0.0,0.0,91,0.00,,,0.00,0,weatherlink.com 1.10,2013-01-09 11:47:00,
2013-01-09 07:02:00,15.4,13.0,30.39,NNE,33,0.0,0.0,91,0.00,,,0.00,0,weatherlink.com 1.10,2013-01-09 12:02:00,
2013-01-09 07:17:00,15.6,14.0,30.38,NE,34,0.0,0.0,92,0.00,,,0.00,0,weatherlink.com 1.10,2013-01-09 12:17:00,
2013-01-09 07:32:00,15.3,13.0,30.38,NE,34,0.0,0.0,91,0.00,,,0.00,12,weatherlink.com 1.10,2013-01-09 12:32:00,
2013-01-09 07:47:00,15.2,13.0,30.38,NE,34,0.0,0.0,91,0.00,,,0.00,26,weatherlink.com 1.10,2013-01-09 12:47:00,
2013-01-09 08:02:00,15.2,13.0,30.38,NE,34,0.0,0.0,91,0.00,,,0.00,46,weatherlink.com 1.10,2013-01-09 13:02:00,
2013-01-09 08:17:00,15.5,13.0,30.37,NNE,33,0.0,0.0,91,0.00,,,0.00,56,weatherlink.com 1.10,2013-01-09 13:17:00,
2013-01-09 08:47:00,16.8,15.0,30.38,NE,34,0.0,0.0,92,0.00,,,0.00,88,weatherlink.com 1.10,2013-01-09 13:47:00,
2013-01-09 09:02:00,16.9,15.0,30.36,NNE,33,0.0,0.0,91,0.00,,,0.00,105,weatherlink.com 1.10,2013-01-09 14:02:00,
2013-01-09 09:17:00,17.5,16.0,30.35,NNE,33,0.0,0.0,92,0.00,,,0.00,120,weatherlink.com 1.10,2013-01-09 14:17:00,
2013-01-09 09:32:00,18.2,16.0,30.34,NNE,33,0.0,0.0,92,0.00,,,0.00,134,weatherlink.com 1.10,2013-01-09 14:32:00,
2013-01-09 09:48:00,19.1,17.0,30.35,NE,34,0.0,0.0,92,0.00,,,0.00,130,weatherlink.com 1.10,2013-01-09 14:48:00,
2013-01-09 10:03:00,19.9,18.0,30.35,NE,34,0.0,0.0,92,0.00,,,0.00,135,weatherlink.com 1.10,2013-01-09 15:03:00,
2013-01-09 10:18:00,20.8,19.0,30.34,NE,34,0.0,0.0,92,0.00,,,0.00,134,weatherlink.com 1.10,2013-01-09 15:18:00,
2013-01-09 10:33:00,21.8,20.0,30.33,NE,34,0.0,0.0,92,0.00,,,0.00,135,weatherlink.com 1.10,2013-01-09 15:33:00,
2013-01-09 10:48:00,22.3,20.0,30.30,NNE,33,0.0,0.0,92,0.00,,,0.00,185,weatherlink.com 1.10,2013-01-09 15:48:00,
2013-01-09 11:03:00,23.0,21.0,30.28,NE,34,0.0,0.0,92,0.00,,,0.00,248,weatherlink.com 1.10,2013-01-09 16:03:00,
2013-01-09 11:18:00,23.9,22.0,30.25,NNE,33,0.0,0.0,91,0.00,,,0.00,211,weatherlink.com 1.10,2013-01-09 16:18:00,
2013-01-09 11:33:00,24.1,22.0,30.24,NNE,33,0.0,0.0,90,0.00,,,0.00,193,weatherlink.com 1.10,2013-01-09 16:33:00,
2013-01-09 11:48:00,25.5,23.0,30.23,NNE,33,0.0,0.0,88,0.00,,,0.00,158,weatherlink.com 1.10,2013-01-09 16:48:00,
2013-01-09 12:03:00,26.4,23.0,30.18,NE,36,0.0,0.0,86,0.00,,,0.00,158,weatherlink.com 1.10,2013-01-09 17:03:00,
2013-01-09 12:18:00,27.0,23.0,30.19,NE,36,0.0,1.0,85,0.00,,,0.00,151,weatherlink.com 1.10,2013-01-09 17:18:00,
2013-01-09 12:33:00,27.5,23.0,30.19,East,80,0.0,4.0,84,0.00,,,0.00,113,weatherlink.com 1.10,2013-01-09 17:33:00,
2013-01-09 12:48:00,28.1,24.0,30.20,SE,139,0.0,3.0,83,0.00,,,0.00,125,weatherlink.com 1.10,2013-01-09 17:48:00,
2013-01-09 13:03:00,28.7,24.0,30.19,SW,225,0.0,6.0,82,0.00,,,0.00,169,weatherlink.com 1.10,2013-01-09 18:03:00,
2013-01-09 13:18:00,29.8,25.0,30.17,SW,222,0.0,3.0,81,0.00,,,0.00,114,weatherlink.com 1.10,2013-01-09 18:18:00,
2013-01-09 13:33:00,30.7,26.0,30.14,SW,227,5.0,6.0,82,0.00,,,0.00,62,weatherlink.com 1.10,2013-01-09 18:33:00,
2013-01-09 13:48:00,32.8,27.0,30.14,WSW,246,4.0,8.0,79,0.00,,,0.00,47,weatherlink.com 1.10,2013-01-09 18:48:00,
2013-01-09 14:03:00,34.1,28.0,30.13,WSW,252,6.0,12.0,77,0.00,,,0.00,63,weatherlink.com 1.10,2013-01-09 19:03:00,
2013-01-09 14:18:00,34.6,28.0,30.11,WSW,241,5.0,11.0,76,0.00,,,0.00,53,weatherlink.com 1.10,2013-01-09 19:18:00,
2013-01-09 14:33:00,34.8,28.0,30.11,SSW,213,7.0,10.0,76,0.00,,,0.00,49,weatherlink.com 1.10,2013-01-09 19:33:00,
2013-01-09 14:48:00,34.8,28.0,30.09,SSW,192,4.0,12.0,76,0.00,,,0.00,33,weatherlink.com 1.10,2013-01-09 19:48:00,
2013-01-09 15:03:00,34.7,28.0,30.05,WSW,241,4.0,8.0,76,0.00,,,0.00,39,weatherlink.com 1.10,2013-01-09 20:03:00,
2013-01-09 15:18:00,34.9,28.0,30.05,SSW,209,4.0,11.0,76,0.00,,,0.00,53,weatherlink.com 1.10,2013-01-09 20:18:00,
2013-01-09 15:33:00,35.2,28.0,30.03,SW,236,4.0,8.0,76,0.00,,,0.00,28,weatherlink.com 1.10,2013-01-09 20:33:00,
2013-01-09 15:48:00,35.3,28.0,30.04,SW,219,12.0,13.0,76,0.00,,,0.00,19,weatherlink.com 1.10,2013-01-09 20:48:00,
2013-01-09 16:04:00,35.6,28.0,30.04,SW,225,9.0,10.0,75,0.00,,,0.00,7,weatherlink.com 1.10,2013-01-09 21:04:00,
2013-01-09 16:19:00,35.7,29.0,30.02,SW,227,6.0,9.0,75,0.00,,,0.00,9,weatherlink.com 1.10,2013-01-09 21:19:00,
2013-01-09 16:34:00,35.8,29.0,30.00,WSW,250,5.0,6.0,76,0.00,,,0.00,0,weatherlink.com 1.10,2013-01-09 21:34:00,
2013-01-09 16:49:00,35.7,29.0,29.99,SW,217,4.0,7.0,76,0.00,,,0.00,0,weatherlink.com 1.10,2013-01-09 21:49:00,
2013-01-09 17:04:00,35.8,29.0,29.98,SSW,202,0.0,7.0,76,0.00,,,0.00,0,weatherlink.com 1.10,2013-01-09 22:04:00,
2013-01-09 17:19:00,35.6,29.0,30.00,SW,232,4.0,8.0,77,0.00,,,0.00,0,weatherlink.com 1.10,2013-01-09 22:19:00,
2013-01-09 17:34:00,35.3,29.0,29.99,SSW,205,3.0,11.0,78,0.00,,,0.00,0,weatherlink.com 1.10,2013-01-09 22:34:00,
2013-01-09 17:49:00,35.0,29.0,30.00,SSW,213,0.0,7.0,78,0.00,,,0.00,0,weatherlink.com 1.10,2013-01-09 22:49:00,
2013-01-09 18:04:00,34.3,28.0,30.00,SSW,211,0.0,5.0,79,0.00,,,0.00,0,weatherlink.com 1.10,2013-01-09 23:04:00,
2013-01-09 18:19:00,33.7,28.0,29.99,SSW,213,0.0,5.0,80,0.00,,,0.00,0,weatherlink.com 1.10,2013-01-09 23:19:00,
2013-01-09 18:34:00,32.7,28.0,30.00,SSW,213,0.0,0.0,82,0.00,,,0.00,0,weatherlink.com 1.10,2013-01-09 23:34:00,
2013-01-09 18:49:00,31.3,27.0,29.99,SSW,213,0.0,1.0,83,0.00,,,0.00,0,weatherlink.com 1.10,2013-01-09 23:49:00,
2013-01-09 19:05:00,30.0,26.0,30.00,SSW,213,0.0,0.0,85,0.00,,,0.00,0,weatherlink.com 1.10,2013-01-10 00:05:00,
2013-01-09 19:19:00,29.2,26.0,30.00,SW,214,3.0,4.0,86,0.00,,,0.00,0,weatherlink.com 1.10,2013-01-10 00:19:00,
2013-01-09 19:34:00,28.5,25.0,30.00,WSW,254,3.0,7.0,87,0.00,,,0.00,0,weatherlink.com 1.10,2013-01-10 00:34:00,
2013-01-09 19:49:00,28.4,25.0,30.00,WSW,238,3.0,8.0,88,0.00,,,0.00,0,weatherlink.com 1.10,2013-01-10 00:49:00,
2013-01-09 20:04:00,28.5,25.0,30.00,SW,232,0.0,6.0,88,0.00,,,0.00,0,weatherlink.com 1.10,2013-01-10 01:04:00,
2013-01-09 20:19:00,28.0,25.0,30.00,SW,229,0.0,2.0,88,0.00,,,0.00,0,weatherlink.com 1.10,2013-01-10 01:19:00,
2013-01-09 20:34:00,27.3,25.0,29.99,SW,220,4.0,6.0,89,0.00,,,0.00,0,weatherlink.com 1.10,2013-01-10 01:34:00,
2013-01-09 20:49:00,27.9,26.0,29.98,SSW,211,6.0,7.0,91,0.00,,,0.00,0,weatherlink.com 1.10,2013-01-10 01:49:00,
2013-01-09 21:04:00,32.1,29.0,29.98,NE,53,5.0,19.0,89,0.00,,,0.00,0,weatherlink.com 1.10,2013-01-10 02:04:00,
2013-01-09 21:19:00,38.1,30.0,29.99,NW,305,13.0,20.0,73,0.00,,,0.00,0,weatherlink.com 1.10,2013-01-10 02:19:00,
2013-01-09 21:34:00,43.2,30.0,30.00,NNW,342,0.0,9.0,60,0.00,,,0.00,0,weatherlink.com 1.10,2013-01-10 02:34:00,
2013-01-09 21:49:00,43.9,29.0,30.01,North,5,2.0,16.0,57,0.00,,,0.00,0,weatherlink.com 1.10,2013-01-10 02:49:00,
2013-01-09 22:04:00,43.9,28.0,30.02,NW,325,2.0,15.0,55,0.00,,,0.00,0,weatherlink.com 1.10,2013-01-10 03:04:00,
2013-01-09 22:19:00,43.8,28.0,30.02,SSW,200,3.0,9.0,55,0.00,,,0.00,0,weatherlink.com 1.10,2013-01-10 03:19:00,
2013-01-09 22:34:00,43.5,29.0,30.03,NE,34,4.0,16.0,56,0.00,,,0.00,0,weatherlink.com 1.10,2013-01-10 03:34:00,
2013-01-09 22:49:00,43.8,28.0,30.03,West,279,4.0,18.0,55,0.00,,,0.00,0,weatherlink.com 1.10,2013-01-10 03:49:00,
2013-01-09 23:04:00,43.8,28.0,30.03,West,263,3.0,19.0,55,0.00,,,0.00,0,weatherlink.com 1.10,2013-01-10 04:04:00,
2013-01-09 23:48:00,43.4,29.0,30.03,WSW,245,7.0,14.0,57,0.00,,,0.00,0,weatherlink.com 1.10,2013-01-10 04:48:00,